User: anonymous
Location: Unspecified
(0.0000°N, 0.0000°E)
Time: 21:57:42
(UTC+02:00)
Language:

ISS - Orbit

View from above orbital plane
View from above orbital plane
View from above satellite
View from above satellite

Ground track
Ground track

The orbit data is extracted from the following two-line orbital elements,

1 25544U 98067A   14206.52997318 -.00005757  00000-0 -91404-4 0  7690
2 25544 051.6472 269.5323 0006361 286.1580 210.2768 15.50427728897273
Epoch (UTC): 25 July 2014 12:43:09
Eccentricity: 0.0006361
inclination: 51.6472°
perigee height: 411 km
apogee height: 420 km
right ascension of ascending node: 269.5323°
argument of perigee: 286.1580°
revolutions per day: 15.50427728
mean anomaly at epoch: 210.2768°
orbit number at epoch: 89727

The dashed part of the orbit path shows where the satellite is in the earth's shadow,  

DLR